Location: Newark
(25.1987°N, 100.3705°W)
Time: 04:36:03
(UTC+00:00)

Envisat - Pass Details

Date: 09 August 2021
Orbit: 764 x 766 km, 98.2° (Epoch: 26 September)

Event Time Altitude Azimuth Distance (km) Brightness Sun altitude
Rises 11:31:34 0° 17° (NNE) 3,230 6.9 -9.6°
Reaches altitude 10° 11:33:55 10° 21° (NNE) 2,301 6.1 -9.1°
Maximum altitude 11:38:55 58° 101° (E) 884 3.7 -8.0°
Drops below altitude 10° 11:43:52 10° 180° (S) 2,290 5.3 -7.0°
Sets 11:46:12 0° 184° (S) 3,213 6.0 -6.5°
